TimeCST,TemperatureF,Dew PointF,Humidity,Sea Level PressureIn,VisibilityMPH,Wind Direction,Wind SpeedMPH,Gust SpeedMPH,PrecipitationIn,Events,Conditions,WindDirDegrees,DateUTC
12:53 AM,42.1,35.1,76,30.24,10.0,SE,3.5,-,N/A,,Clear,130,2012-11-30 06:53:00
1:53 AM,41.0,37.0,86,30.24,10.0,ESE,3.5,-,N/A,,Clear,110,2012-11-30 07:53:00
2:53 AM,41.0,37.0,86,30.24,10.0,Calm,Calm,-,N/A,,Clear,0,2012-11-30 08:53:00
3:53 AM,43.0,39.9,89,30.22,7.0,Calm,Calm,-,N/A,,Partly Cloudy,0,2012-11-30 09:53:00
4:31 AM,39.2,35.6,87,30.22,8.0,Calm,Calm,-,N/A,,Mostly Cloudy,0,2012-11-30 10:31:00
4:51 AM,41.0,39.2,93,30.21,7.0,Calm,Calm,-,N/A,,Overcast,0,2012-11-30 10:51:00
4:53 AM,41.0,39.0,93,30.23,7.0,Calm,Calm,-,N/A,,Overcast,0,2012-11-30 10:53:00
5:07 AM,42.8,42.8,100,30.22,1.0,SE,4.6,-,N/A,,Mist,130,2012-11-30 11:07:00
5:20 AM,46.4,44.6,93,30.22,0.2,ESE,4.6,-,N/A,Fog,Fog,120,2012-11-30 11:20:00
5:53 AM,45.0,45.0,100,30.24,0.2,SE,5.8,-,N/A,Fog,Fog,130,2012-11-30 11:53:00
6:53 AM,45.0,44.1,97,30.25,0.2,SE,3.5,-,N/A,Fog,Fog,140,2012-11-30 12:53:00
7:53 AM,46.0,45.0,96,30.26,0.2,SSE,3.5,-,N/A,Fog,Fog,150,2012-11-30 13:53:00
8:53 AM,48.9,48.0,97,30.27,0.5,SE,4.6,-,N/A,Fog,Fog,140,2012-11-30 14:53:00
9:03 AM,50.0,48.2,94,30.26,1.2,SSE,5.8,-,N/A,,Mostly Cloudy,150,2012-11-30 15:03:00
9:11 AM,50.0,48.2,94,30.26,3.0,SSE,4.6,-,N/A,,Mostly Cloudy,150,2012-11-30 15:11:00
9:18 AM,51.8,48.2,88,30.26,4.0,SSE,5.8,-,N/A,,Scattered Clouds,150,2012-11-30 15:18:00
9:53 AM,55.9,48.9,77,30.28,10.0,SE,9.2,-,N/A,,Clear,140,2012-11-30 15:53:00
10:53 AM,64.0,51.1,63,30.26,10.0,SSE,9.2,-,N/A,,Clear,150,2012-11-30 16:53:00
11:53 AM,68.0,52.0,56,30.23,10.0,SE,4.6,-,N/A,,Clear,140,2012-11-30 17:53:00
12:53 PM,72.0,53.1,51,30.19,10.0,East,5.8,-,N/A,,Mostly Cloudy,100,2012-11-30 18:53:00
1:53 PM,73.9,53.1,48,30.17,10.0,ESE,6.9,-,N/A,,Scattered Clouds,110,2012-11-30 19:53:00
2:53 PM,73.0,53.1,49,30.16,10.0,SE,5.8,-,N/A,,Scattered Clouds,140,2012-11-30 20:53:00
3:53 PM,71.1,53.1,53,30.16,10.0,ESE,5.8,-,N/A,,Clear,120,2012-11-30 21:53:00
4:53 PM,66.0,53.1,63,30.16,10.0,SE,5.8,-,N/A,,Clear,140,2012-11-30 22:53:00
5:53 PM,64.0,53.1,67,30.16,10.0,East,3.5,-,N/A,,Mostly Cloudy,100,2012-11-30 23:53:00
6:53 PM,62.1,52.0,70,30.17,10.0,SE,3.5,-,N/A,,Clear,140,2012-12-01 00:53:00
7:53 PM,61.0,53.1,75,30.18,10.0,SSE,3.5,-,N/A,,Clear,150,2012-12-01 01:53:00
9:53 PM,57.0,51.1,81,30.19,10.0,SSE,4.6,-,N/A,,Mostly Cloudy,160,2012-12-01 03:53:00
10:53 PM,55.0,51.1,86,30.19,10.0,SE,5.8,-,N/A,,Scattered Clouds,140,2012-12-01 04:53:00
11:53 PM,55.9,51.1,84,30.19,10.0,SE,4.6,-,N/A,,Mostly Cloudy,130,2012-12-01 05:53:00